Aérodrome :
LOGIN :

S'inscrire | Disclaimer

   EN    FR    IT 

 










Légende :    VFR   VFR Marginal   IFR   IFR Intensif   IFR Très Intensif
Visi : 
Plafond : 
>= 8 km
>= 3000ft
5 à 8 km
1000 à 3000 ft
1500m à 5 km
500 à 1000 ft
800 à 1500m
200 à 500 ft
< 800m
< 200 ft
Symboles :   Orages  Brouillard  Fortes neiges  Fortes précipitations  Vent > 20 kt
SIGMETs :   Divers  Orages  Givrage  Turbulence  Onde Orograph.  Cendres Volcan.







- Altitude de l'aérodrome : 106 ft
- Code IATA : NRN


EDLV - Weeze

DERNIER METAR :
  • 160720Z 20006KT 9999 BKN030 18/17 Q1017

METARs EXPIRÉS :
  • 160650Z 18005KT 150V230 9999 BKN030 17/16 Q1017
  • 160620Z 18006KT 9999 BKN030 16/16 Q1017
  • 160550Z 19006KT 160V220 9999 BKN029 16/16 Q1017
  • 160520Z 19005KT CAVOK 15/15 Q1017
  • 160450Z 18005KT 160V220 CAVOK 15/15 Q1017

TAF TAF EDLV
Valide du 16 à 06h jusqu'au 17 à 06h UTC


160500Z 1606/1706 22007KT CAVOK
BECMG 1617/1620 33003KT
PROB30
TEMPO 1704/1706 SHRA BKN012TCU
Pas de NOTAMs connus pour ce terrain.



MET'MAP, la Météo Aéronautique d'un coup d'oeil ! - Copyright ORBIFLY Décembre 2007 - Disclaimer

ORBIFLY MET'MAP TEAM :

Programmation & Développement : Alexandra Zaïnal
Conception & Développement : Baudouin d'Aumeries
Co-Programmation & Développement : Marc-Olivier Méhu
Soutien technique & logistique : Manuel Goepfert

Contact : metmap@orbifly.com




SOURCES & CREDITS :

   NOAA